User: anonymous   Login
Location: Knowlton
(51.2333°N, 1.2667°E)
Time: 12:00:23
(UTC+00:00)
Language:

Max Valier Satellite - Orbit

View from above orbital plane
View from above orbital plane
View from above satellite
View from above satellite

Ground track
Ground track

The orbit data is extracted from the following two-line orbital elements,

1 42778U 17036P   21340.07331706  .00002535  00000-0  10613-3 0  9991
2 42778  97.2335  22.9224 0009941 293.7773  66.2422 15.24397966247424
Epoch (UTC): 06 December 2021 01:45:34
Eccentricity: 0.0009941
inclination: 97.2335°
perigee height: 486 km
apogee height: 499 km
right ascension of ascending node: 22.9224°
argument of perigee: 293.7773°
revolutions per day: 15.24397966
mean anomaly at epoch: 66.2422°
orbit number at epoch: 24742

The dashed part of the orbit path shows where the satellite is in the earth's shadow,  

DLR